Palacios, TX

8:05 AM CDT on September 26, 2016 (GMT -0500)
Palacios Municipal

Weather History for KPSX - October, 2011

Change the Weather History Date:

Tuesday, October 18, 2011

  Actual Average Record
Temperature  
Mean Temperature 68 °F -  
Max Temperature 78 °F 80 °F 89 °F (1947)
Min Temperature 53 °F 61 °F 44 °F (1955)
Cooling Degree Days 2    
Growing Degree Days 18 (Base 50)    
Moisture  
Dew Point 52 °F    
Average Humidity 57    
Maximum Humidity 100    
Minimum Humidity 32    
Precipitation  
Precipitation 0.00 in - - ()
Sea Level Pressure  
Sea Level Pressure 29.89 in    
Wind  
Wind Speed 18 mph (NNW)    
Max Wind Speed 34 mph    
Max Gust Speed 43 mph    
Visibility 10 miles    
Events      
Averages and records for this station are not official NWS values.
T = Trace of Precipitation, MM = Missing Value Source: NWS Daily Summary

Daily Weather History Graph

Daily Weather History Graph

Search for Another Location

Airport or City:

Trip Planner

Search our weather history database for the weather conditions in past years. The results will help you decide how hot, cold, wet, or windy it might be!

Date:

Astronomy

Oct. 18, 2011 Rise Set
Actual Time 7:27 AM CDT 6:52 PM CDT
Civil Twilight 7:03 AM CDT 7:16 PM CDT
Nautical Twilight 6:36 AM CDT 7:43 PM CDT
Astronomical Twilight 6:08 AM CDT 8:11 PM CDT
Moon 11:50 PM CDT (10/18) 1:02 PM CDT (10/18)
Length of Visible Light 12h 12m
Length of Day
11h 24m
Waning Gibbous, 64% of the Moon is Illuminated
Oct 18
Waning Gibbous
Oct 19
Last Quarter
Oct 26
New
Nov 2
First Quarter
Nov 10
Full

Hourly Weather History & Observations

Time (CDT) Temp. Dew Point Humidity Pressure Visibility Wind Dir Wind Speed Gust Speed Precip Events Conditions
12:53 AM 77.0 °F 72.0 °F 84% 29.72 in 10.0 mi South 11.5 mph - N/A   Clear
1:53 AM 77.0 °F 72.0 °F 84% 29.71 in 10.0 mi South 11.5 mph - N/A   Clear
2:53 AM 78.1 °F 73.0 °F 84% 29.77 in 10.0 mi West 8.1 mph - N/A   Clear
3:53 AM 75.9 °F 73.0 °F 91% 29.74 in 10.0 mi SW 4.6 mph - N/A   Clear
4:53 AM 73.0 °F 72.0 °F 96% 29.79 in 10.0 mi NNW 12.7 mph - N/A   Overcast
5:53 AM 73.0 °F 73.0 °F 100% 29.80 in 10.0 mi NW 9.2 mph - 0.00 in   Mostly Cloudy
6:40 AM 69.8 °F 60.8 °F 73% 29.83 in 10.0 mi NNW 24.2 mph 33.4 mph N/A   Mostly Cloudy
7:53 AM 66.9 °F 55.9 °F 68% 29.86 in 10.0 mi NNW 20.7 mph 27.6 mph N/A   Clear
8:53 AM 66.0 °F 48.9 °F 54% 29.89 in 10.0 mi North 27.6 mph 38.0 mph N/A   Clear
9:53 AM 66.0 °F 45.0 °F 47% 29.92 in 10.0 mi NNW 27.6 mph 38.0 mph N/A   Clear
10:53 AM 69.1 °F 45.0 °F 42% 29.92 in 10.0 mi North 24.2 mph 36.8 mph N/A   Clear
11:53 AM 71.1 °F 45.0 °F 39% 29.92 in 10.0 mi North 33.4 mph 41.4 mph N/A   Clear
12:53 PM 73.0 °F 45.0 °F 37% 29.90 in 10.0 mi North 31.1 mph 40.3 mph N/A   Clear
1:53 PM 75.0 °F 44.1 °F 33% 29.88 in 10.0 mi North 34.5 mph 42.6 mph N/A   Clear
2:53 PM 75.0 °F 43.0 °F 32% 29.88 in 10.0 mi North 33.4 mph 41.4 mph N/A   Clear
3:53 PM 75.0 °F 43.0 °F 32% 29.88 in 10.0 mi NNW 29.9 mph 39.1 mph N/A   Clear
4:53 PM 73.9 °F 42.1 °F 32% 29.89 in 10.0 mi NNW 32.2 mph 41.4 mph N/A   Clear
5:53 PM 72.0 °F 43.0 °F 35% 29.91 in 10.0 mi NNW 27.6 mph 36.8 mph N/A   Clear
6:53 PM 69.1 °F 42.1 °F 38% 29.95 in 10.0 mi NNW 23.0 mph 31.1 mph N/A   Clear
7:53 PM 64.4 °F 42.8 °F 45% 29.99 in 10.0 mi North 17.3 mph - N/A   Clear
8:53 PM 64.0 °F 42.1 °F 45% 30.02 in 10.0 mi North 18.4 mph - N/A   Clear
9:53 PM 61.0 °F 42.1 °F 50% 30.05 in 10.0 mi North 11.5 mph - N/A   Clear
10:53 PM 57.0 °F 43.0 °F 59% 30.07 in 10.0 mi NNW 9.2 mph - N/A   Clear
11:53 PM 53.1 °F 44.1 °F 71% 30.07 in 10.0 mi NW 8.1 mph - N/A   Clear